Regional Weather Roundup
Issued by NWS Northern Indiana

Home | Current Version | Previous Version | Graphics & Text | Print | Product List | Glossary On
Versions: 1 2 3 4 5 6 7 8 9 10 11 12 13 14 15 16 17 18 19 20 21 22 23 24 25 26 27 28 29 30 31 32 33 34 35 36 37 38 39 40 41 42 43 44 45 46 47 48 49 50
000
ASUS43 KIWX 240700
RWRIWX

KIWX WEATHER ROUNDUP
NATIONAL WEATHER SERVICE NORTHERN INDIANA
300 AM EDT FRI OCT 24 2014

NOTE: "FAIR" INDICATES FEW OR NO CLOUDS BELOW 12,000 FEET WITH NO
SIGNIFICANT WEATHER AND/OR OBSTRUCTIONS TO VISIBILITY.

* THESE STATIONS ARE NOT UNDER NWS QUALITY CONTROL. THEY ALSO MAY NOT
  REPORT WEATHER SUCH AS PRECIPITATION OR FOG.

INZ001>027-240800-
NORTHERN INDIANA

CITY           SKY/WX    TMP DP  RH WIND       PRES   REMARKS
SOUTH BEND     CLOUDY    51  42  71 SW6       30.08F
GOSHEN         CLOUDY    45  41  86 CALM      30.09S FOG
ANGOLA*        PTCLDY    36  36 100 CALM      30.09S
FORT WAYNE     NOT AVBL

$$
INZ028>050-240800-
CENTRAL INDIANA

CITY           SKY/WX    TMP DP  RH WIND       PRES   REMARKS
KOKOMO*        CLEAR     39  36  87 CALM      30.10F
MUNCIE*        MOCLDY    41  38  89 SW3       30.10F
INDIANAPOLIS   MOCLDY    45  40  82 CALM      30.11S

$$
MIZ043>046-050>051-056>058-064>065-071>073-077>080-240800-
SOUTHWEST LOWER MICHIGAN

CITY           SKY/WX    TMP DP  RH WIND       PRES   REMARKS
BATTLE CREEK   PTCLDY    44  38  79 S3        30.08S
BENTON HARBOR  CLOUDY    50  43  77 S7        30.06F
COLDWATER*     PTCLDY    38  37  96 MISG      30.08S FOG
HILLSDALE*     PTCLDY    35  35 100 CALM      30.08S
HOLLAND        CLOUDY    50  42  74 S6        30.06F
GRAND RAPIDS   CLOUDY    50  42  74 S6        30.06F
STURGIS*       CLOUDY    45  43  93 CALM      30.08R FOG
THREE RIVERS*  CLOUDY    44  41  90 CALM      30.08S FOG

$$
OHZ001>008-015>018-024>025-240800-
NORTHWEST OHIO

CITY           SKY/WX    TMP DP  RH WIND       PRES   REMARKS
DEFIANCE       PTCLDY    37  34  89 CALM      30.11R
FINDLAY        MOCLDY    40  36  86 S3        30.10S
TOLEDO EXPRESS MOCLDY    36  34  92 CALM      30.10S FOG
TOLEDO METCALF MOCLDY    38  35  89 SE5       30.11S
LIMA           MOCLDY    40  37  89 S3        30.10F

$$
AND FOR LAKE MICHIGAN COASTAL AND OPEN LAKE BUOY OBSERVATIONS

STATION/POSITION TEMP    WIND        PRES    VSBY  WAVE
                 AIR SEA DIR/SP/G                  HT/PER
                 (F)     (DEG/KT/KT) (MB)    (MI)  (FT/S)
CALUMET HARBOR    54     190/  5/  7 1016.3F
MICHIGAN CITY     53     170/  8/ 10   N/A
SAINT JOSEPH      52                 1019.3R
SOUTH LAKE BUOY   55 54  190/ 12/ 14 1017.4F         1/ 3

$$
&&



USA.gov is the U.S. government's official web portal to all federal, state and local government web resources and services.